contact:dominique.lefevre@mio.osupytheas.fr, maurice.libes@osupytheas.fr, didier.mallarino@osupytheas.fr
Project:EMSO http://www.emso-fr.org/EMSO-France
Depth: 2436.0 m
Title:EMSO Ligure Ouest : Data MII capteur MICROCAT
DateTime_Computer,Latitude,Longitude,Temperature,Conductivity,Pressure,DateTime_Instrument
DateTime_Computer,Latitude,Longitude,degC,S m-1,dbar,DateTime_Instrument
2019-12-03T00:02:14Z,42.805,6.029,13.2981,4.59971,2469.993,2019-12-03T02:02:44Z
2019-12-03T00:05:18Z,42.805,6.029,13.2976,4.59981,2470.017,2019-12-03T02:05:47Z
2019-12-03T00:08:21Z,42.805,6.029,13.2971,4.60009,2470.017,2019-12-03T02:08:50Z
2019-12-03T00:11:24Z,42.805,6.029,13.2991,4.59989,2470.03,2019-12-03T02:11:53Z
2019-12-03T00:14:27Z,42.805,6.029,13.2986,4.60006,2469.993,2019-12-03T02:14:56Z
2019-12-03T00:17:30Z,42.805,6.029,13.2984,4.59989,2470.017,2019-12-03T02:18:00Z
2019-12-03T00:20:34Z,42.805,6.029,13.2987,4.59996,2470.017,2019-12-03T02:21:03Z
2019-12-03T00:23:37Z,42.805,6.029,13.2990,4.59994,2470.017,2019-12-03T02:24:06Z
2019-12-03T00:26:40Z,42.805,6.029,13.2984,4.60016,2470.017,2019-12-03T02:27:09Z
2019-12-03T00:29:43Z,42.805,6.029,13.2988,4.60014,2470.017,2019-12-03T02:30:12Z
2019-12-03T00:32:46Z,42.805,6.029,13.2998,4.60006,2469.97,2019-12-03T02:33:16Z
2019-12-03T00:35:50Z,42.805,6.029,13.2985,4.60011,2469.993,2019-12-03T02:36:19Z
2019-12-03T00:38:53Z,42.805,6.029,13.2972,4.60007,2470.017,2019-12-03T02:39:22Z
2019-12-03T00:41:56Z,42.805,6.029,13.2972,4.60007,2469.984,2019-12-03T02:42:25Z
2019-12-03T00:44:59Z,42.805,6.029,13.2989,4.59988,2469.993,2019-12-03T02:45:28Z
2019-12-03T00:48:02Z,42.805,6.029,13.2980,4.59973,2470.007,2019-12-03T02:48:31Z
2019-12-03T00:51:06Z,42.805,6.029,13.2984,4.60006,2469.993,2019-12-03T02:51:35Z
2019-12-03T00:54:09Z,42.805,6.029,13.2990,4.60003,2470.017,2019-12-03T02:54:38Z
2019-12-03T00:57:12Z,42.805,6.029,13.2985,4.60003,2469.993,2019-12-03T02:57:41Z
2019-12-03T01:00:15Z,42.805,6.029,13.2976,4.59997,2469.993,2019-12-03T03:00:44Z
2019-12-03T01:03:18Z,42.805,6.029,13.2981,4.60008,2470.007,2019-12-03T03:03:47Z
2019-12-03T01:06:22Z,42.805,6.029,13.2976,4.59984,2469.993,2019-12-03T03:06:51Z
2019-12-03T01:09:25Z,42.805,6.029,13.2974,4.59978,2470.007,2019-12-03T03:09:54Z
2019-12-03T01:12:28Z,42.805,6.029,13.2988,4.60008,2469.993,2019-12-03T03:12:57Z
2019-12-03T01:15:31Z,42.805,6.029,13.2989,4.59983,2469.993,2019-12-03T03:16:00Z
2019-12-03T01:18:34Z,42.805,6.029,13.2979,4.59973,2469.993,2019-12-03T03:19:03Z
2019-12-03T01:21:37Z,42.805,6.029,13.2979,4.59973,2470.007,2019-12-03T03:22:07Z
2019-12-03T01:24:41Z,42.805,6.029,13.2979,4.60011,2470.007,2019-12-03T03:25:10Z
2019-12-03T01:27:44Z,42.805,6.029,13.2975,4.59994,2469.993,2019-12-03T03:28:13Z
2019-12-03T01:30:47Z,42.805,6.029,13.2978,4.60001,2469.97,2019-12-03T03:31:16Z
2019-12-03T01:33:50Z,42.805,6.029,13.2982,4.60008,2469.993,2019-12-03T03:34:19Z
2019-12-03T01:36:53Z,42.805,6.029,13.2983,4.60011,2470.007,2019-12-03T03:37:23Z
2019-12-03T01:39:57Z,42.805,6.029,13.2978,4.59980,2469.947,2019-12-03T03:40:26Z
2019-12-03T01:43:00Z,42.805,6.029,13.2982,4.60004,2469.96,2019-12-03T03:43:29Z
2019-12-03T01:46:03Z,42.805,6.029,13.2976,4.59980,2469.984,2019-12-03T03:46:32Z
2019-12-03T01:49:06Z,42.805,6.029,13.2974,4.59986,2469.993,2019-12-03T03:49:35Z
2019-12-03T01:52:09Z,42.805,6.029,13.2984,4.59996,2469.993,2019-12-03T03:52:38Z
2019-12-03T01:55:13Z,42.805,6.029,13.2990,4.60006,2469.984,2019-12-03T03:55:42Z
2019-12-03T01:58:16Z,42.805,6.029,13.2986,4.59972,2469.984,2019-12-03T03:58:45Z
2019-12-03T02:01:19Z,42.805,6.029,13.2971,4.59982,2469.97,2019-12-03T04:01:48Z
2019-12-03T02:04:22Z,42.805,6.029,13.2974,4.59986,2469.993,2019-12-03T04:04:52Z
2019-12-03T02:07:26Z,42.805,6.029,13.2977,4.59967,2470.007,2019-12-03T04:07:55Z
2019-12-03T02:10:29Z,42.805,6.029,13.2980,4.59976,2469.993,2019-12-03T04:10:58Z
2019-12-03T02:13:32Z,42.805,6.029,13.2976,4.59966,2470.007,2019-12-03T04:14:01Z
2019-12-03T02:16:35Z,42.805,6.029,13.2970,4.59978,2469.947,2019-12-03T04:17:04Z
2019-12-03T02:19:38Z,42.805,6.029,13.2983,4.59978,2469.984,2019-12-03T04:20:08Z
2019-12-03T02:22:42Z,42.805,6.029,13.2973,4.59988,2469.97,2019-12-03T04:23:11Z
2019-12-03T02:25:45Z,42.805,6.029,13.2978,4.59981,2469.984,2019-12-03T04:26:14Z
2019-12-03T02:28:48Z,42.805,6.029,13.2970,4.59979,2469.937,2019-12-03T04:29:17Z
2019-12-03T02:31:51Z,42.805,6.029,13.2976,4.59970,2469.947,2019-12-03T04:32:21Z
2019-12-03T02:34:55Z,42.805,6.029,13.2976,4.59981,2469.947,2019-12-03T04:35:24Z
2019-12-03T02:37:58Z,42.805,6.029,13.2982,4.59972,2469.96,2019-12-03T04:38:27Z
2019-12-03T02:41:01Z,42.805,6.029,13.2977,4.59979,2469.96,2019-12-03T04:41:30Z
2019-12-03T02:44:04Z,42.805,6.029,13.2975,4.59986,2469.947,2019-12-03T04:44:33Z
2019-12-03T02:47:07Z,42.805,6.029,13.2968,4.59981,2469.947,2019-12-03T04:47:37Z
2019-12-03T02:50:11Z,42.805,6.029,13.2979,4.59983,2469.96,2019-12-03T04:50:40Z
2019-12-03T02:53:14Z,42.805,6.029,13.2977,4.59981,2469.993,2019-12-03T04:53:43Z
2019-12-03T02:56:17Z,42.805,6.029,13.2963,4.59979,2469.97,2019-12-03T04:56:46Z
2019-12-03T02:59:20Z,42.805,6.029,13.2966,4.59974,2469.96,2019-12-03T04:59:49Z
2019-12-03T03:02:23Z,42.805,6.029,13.2971,4.59981,2469.96,2019-12-03T05:02:53Z
2019-12-03T03:05:27Z,42.805,6.029,13.2966,4.59964,2469.97,2019-12-03T05:05:56Z
2019-12-03T03:08:30Z,42.805,6.029,13.2979,4.59970,2469.984,2019-12-03T05:08:59Z
2019-12-03T03:11:33Z,42.805,6.029,13.2983,4.59979,2469.947,2019-12-03T05:12:02Z
2019-12-03T03:14:36Z,42.805,6.029,13.2968,4.59986,2469.947,2019-12-03T05:15:06Z
2019-12-03T03:17:40Z,42.805,6.029,13.2974,4.59985,2469.947,2019-12-03T05:18:09Z
2019-12-03T03:20:43Z,42.805,6.029,13.2967,4.59992,2469.96,2019-12-03T05:21:12Z
2019-12-03T03:23:46Z,42.805,6.029,13.2976,4.60002,2469.937,2019-12-03T05:24:16Z
2019-12-03T03:26:50Z,42.805,6.029,13.2977,4.60002,2469.97,2019-12-03T05:27:19Z
2019-12-03T03:29:53Z,42.805,6.029,13.2981,4.59994,2469.96,2019-12-03T05:30:22Z
2019-12-03T03:32:56Z,42.805,6.029,13.2980,4.59987,2469.96,2019-12-03T05:33:25Z
2019-12-03T03:35:59Z,42.805,6.029,13.2971,4.59986,2469.97,2019-12-03T05:36:28Z
2019-12-03T03:39:02Z,42.805,6.029,13.2974,4.59973,2469.947,2019-12-03T05:39:32Z
2019-12-03T03:42:06Z,42.805,6.029,13.2972,4.59966,2469.96,2019-12-03T05:42:35Z
2019-12-03T03:45:09Z,42.805,6.029,13.2966,4.59988,2469.96,2019-12-03T05:45:38Z
2019-12-03T03:48:12Z,42.805,6.029,13.2972,4.59968,2469.96,2019-12-03T05:48:41Z
2019-12-03T03:51:15Z,42.805,6.029,13.2969,4.59978,2469.97,2019-12-03T05:51:44Z
2019-12-03T03:54:18Z,42.805,6.029,13.2976,4.59988,2469.947,2019-12-03T05:54:48Z
2019-12-03T03:57:22Z,42.805,6.029,13.2981,4.59980,2469.947,2019-12-03T05:57:51Z
2019-12-03T04:00:25Z,42.805,6.029,13.2977,4.60000,2469.97,2019-12-03T06:00:54Z
2019-12-03T04:03:28Z,42.805,6.029,13.2986,4.59991,2469.97,2019-12-03T06:03:57Z
2019-12-03T04:06:32Z,42.805,6.029,13.2982,4.60002,2469.9,2019-12-03T06:07:01Z
2019-12-03T04:09:35Z,42.805,6.029,13.2986,4.60002,2469.984,2019-12-03T06:10:04Z
2019-12-03T04:12:38Z,42.805,6.029,13.2979,4.59978,2469.97,2019-12-03T06:13:07Z
2019-12-03T04:15:41Z,42.805,6.029,13.2976,4.59979,2469.984,2019-12-03T06:16:10Z
2019-12-03T04:18:44Z,42.805,6.029,13.2983,4.60001,2469.984,2019-12-03T06:19:13Z
2019-12-03T04:21:47Z,42.805,6.029,13.2974,4.59993,2469.923,2019-12-03T06:22:17Z
2019-12-03T04:24:51Z,42.805,6.029,13.2989,4.59991,2469.947,2019-12-03T06:25:20Z
2019-12-03T04:27:54Z,42.805,6.029,13.2992,4.59994,2469.984,2019-12-03T06:28:23Z
2019-12-03T04:30:57Z,42.805,6.029,13.2990,4.60000,2469.984,2019-12-03T06:31:26Z
2019-12-03T04:34:00Z,42.805,6.029,13.2979,4.59994,2469.97,2019-12-03T06:34:29Z
2019-12-03T04:37:03Z,42.805,6.029,13.2979,4.59986,2469.923,2019-12-03T06:37:33Z
2019-12-03T04:40:07Z,42.805,6.029,13.2971,4.60003,2469.96,2019-12-03T06:40:36Z
2019-12-03T04:43:10Z,42.805,6.029,13.2983,4.59993,2469.97,2019-12-03T06:43:39Z
2019-12-03T04:46:13Z,42.805,6.029,13.2978,4.59995,2469.947,2019-12-03T06:46:42Z
2019-12-03T04:49:16Z,42.805,6.029,13.2966,4.59977,2469.947,2019-12-03T06:49:45Z
2019-12-03T04:52:19Z,42.805,6.029,13.2983,4.60019,2469.96,2019-12-03T06:52:49Z
2019-12-03T04:55:23Z,42.805,6.029,13.2973,4.60003,2469.947,2019-12-03T06:55:52Z
2019-12-03T04:58:26Z,42.805,6.029,13.2984,4.59995,2469.937,2019-12-03T06:58:55Z
2019-12-03T05:01:29Z,42.805,6.029,13.2971,4.59984,2469.947,2019-12-03T07:01:58Z
2019-12-03T05:04:32Z,42.805,6.029,13.2979,4.59978,2469.96,2019-12-03T07:05:01Z
2019-12-03T05:07:35Z,42.805,6.029,13.2992,4.60003,2469.923,2019-12-03T07:08:04Z
2019-12-03T05:10:38Z,42.805,6.029,13.2973,4.59983,2469.923,2019-12-03T07:11:08Z
2019-12-03T05:13:42Z,42.805,6.029,13.2999,4.60002,2469.947,2019-12-03T07:14:11Z
2019-12-03T05:16:45Z,42.805,6.029,13.2978,4.60002,2469.96,2019-12-03T07:17:14Z
2019-12-03T05:19:48Z,42.805,6.029,13.2976,4.60003,2469.96,2019-12-03T07:20:17Z
2019-12-03T05:22:51Z,42.805,6.029,13.2981,4.59991,2469.947,2019-12-03T07:23:20Z
2019-12-03T05:25:54Z,42.805,6.029,13.2979,4.60001,2469.937,2019-12-03T07:26:24Z
2019-12-03T05:28:58Z,42.805,6.029,13.2983,4.59975,2469.97,2019-12-03T07:29:27Z
2019-12-03T05:32:01Z,42.805,6.029,13.2966,4.59971,2469.97,2019-12-03T07:32:30Z
2019-12-03T05:35:04Z,42.805,6.029,13.2959,4.59979,2469.923,2019-12-03T07:35:33Z
2019-12-03T05:38:07Z,42.805,6.029,13.2976,4.59976,2469.947,2019-12-03T07:38:36Z
2019-12-03T05:41:10Z,42.805,6.029,13.2971,4.59972,2469.937,2019-12-03T07:41:40Z
2019-12-03T05:44:14Z,42.805,6.029,13.2974,4.59989,2469.923,2019-12-03T07:44:43Z
2019-12-03T05:47:17Z,42.805,6.029,13.2974,4.59992,2469.96,2019-12-03T07:47:46Z
2019-12-03T05:50:20Z,42.805,6.029,13.2964,4.59976,2469.923,2019-12-03T07:50:49Z
2019-12-03T05:53:23Z,42.805,6.029,13.2971,4.59992,2469.923,2019-12-03T07:53:52Z
2019-12-03T05:56:27Z,42.805,6.029,13.2980,4.59965,2469.947,2019-12-03T07:56:56Z
2019-12-03T05:59:30Z,42.805,6.029,13.2977,4.59970,2469.914,2019-12-03T07:59:59Z
2019-12-03T06:02:33Z,42.805,6.029,13.2965,4.59979,2469.9,2019-12-03T08:03:02Z
2019-12-03T06:05:36Z,42.805,6.029,13.2967,4.59963,2469.923,2019-12-03T08:06:05Z
2019-12-03T06:08:40Z,42.805,6.029,13.2977,4.59988,2469.97,2019-12-03T08:09:09Z
2019-12-03T06:11:43Z,42.805,6.029,13.2966,4.59998,2469.97,2019-12-03T08:12:12Z
2019-12-03T06:14:46Z,42.805,6.029,13.2974,4.60011,2469.96,2019-12-03T08:15:15Z
2019-12-03T06:17:49Z,42.805,6.029,13.2974,4.59981,2469.947,2019-12-03T08:18:18Z
2019-12-03T06:20:52Z,42.805,6.029,13.2969,4.59976,2469.923,2019-12-03T08:21:21Z
2019-12-03T06:23:55Z,42.805,6.029,13.2974,4.60008,2469.923,2019-12-03T08:24:25Z
2019-12-03T06:26:59Z,42.805,6.029,13.2976,4.59999,2469.923,2019-12-03T08:27:28Z
2019-12-03T06:30:02Z,42.805,6.029,13.2979,4.59988,2469.923,2019-12-03T08:30:31Z
2019-12-03T06:33:05Z,42.805,6.029,13.2977,4.59978,2469.96,2019-12-03T08:33:34Z
2019-12-03T06:36:08Z,42.805,6.029,13.2977,4.59979,2469.947,2019-12-03T08:36:37Z
2019-12-03T06:39:11Z,42.805,6.029,13.2975,4.60002,2469.947,2019-12-03T08:39:41Z
2019-12-03T06:42:15Z,42.805,6.029,13.2983,4.59978,2469.96,2019-12-03T08:42:44Z
2019-12-03T06:45:18Z,42.805,6.029,13.2968,4.59996,2469.947,2019-12-03T08:45:47Z
2019-12-03T06:48:21Z,42.805,6.029,13.2971,4.59988,2469.947,2019-12-03T08:48:50Z
2019-12-03T06:51:24Z,42.805,6.029,13.2979,4.60001,2469.96,2019-12-03T08:51:53Z
2019-12-03T06:54:27Z,42.805,6.029,13.2971,4.59994,2469.947,2019-12-03T08:54:57Z
2019-12-03T06:57:31Z,42.805,6.029,13.2976,4.59980,2469.984,2019-12-03T08:58:00Z
2019-12-03T07:00:34Z,42.805,6.029,13.2967,4.59997,2469.947,2019-12-03T09:01:03Z
2019-12-03T07:03:37Z,42.805,6.029,13.2974,4.59979,2469.984,2019-12-03T09:04:06Z
2019-12-03T07:06:40Z,42.805,6.029,13.2974,4.59986,2469.947,2019-12-03T09:07:09Z
2019-12-03T07:09:43Z,42.805,6.029,13.2979,4.59984,2469.984,2019-12-03T09:10:12Z
2019-12-03T07:12:47Z,42.805,6.029,13.2975,4.59977,2469.96,2019-12-03T09:13:16Z
2019-12-03T07:15:50Z,42.805,6.029,13.2968,4.59987,2469.984,2019-12-03T09:16:19Z
2019-12-03T07:18:53Z,42.805,6.029,13.2975,4.59982,2469.947,2019-12-03T09:19:22Z
2019-12-03T07:21:56Z,42.805,6.029,13.2984,4.59998,2469.97,2019-12-03T09:22:25Z
2019-12-03T07:24:59Z,42.805,6.029,13.2968,4.59973,2469.97,2019-12-03T09:25:29Z
2019-12-03T07:28:03Z,42.805,6.029,13.2971,4.59990,2469.97,2019-12-03T09:28:32Z
2019-12-03T07:31:06Z,42.805,6.029,13.2982,4.60005,2469.984,2019-12-03T09:31:35Z
2019-12-03T07:34:09Z,42.805,6.029,13.2979,4.59993,2469.979,2019-12-03T09:34:39Z
2019-12-03T07:37:13Z,42.805,6.029,13.2967,4.59985,2469.97,2019-12-03T09:37:42Z
2019-12-03T07:40:16Z,42.805,6.029,13.2983,4.59985,2469.947,2019-12-03T09:40:45Z
2019-12-03T07:43:19Z,42.805,6.029,13.2971,4.59996,2470.03,2019-12-03T09:43:48Z
2019-12-03T07:46:22Z,42.805,6.029,13.2980,4.59983,2469.984,2019-12-03T09:46:51Z
2019-12-03T07:49:25Z,42.805,6.029,13.2979,4.59985,2469.984,2019-12-03T09:49:55Z
2019-12-03T07:52:29Z,42.805,6.029,13.2975,4.59991,2469.984,2019-12-03T09:52:58Z
2019-12-03T07:55:32Z,42.805,6.029,13.2966,4.59989,2470.017,2019-12-03T09:56:01Z
2019-12-03T07:58:35Z,42.805,6.029,13.2974,4.59995,2469.97,2019-12-03T09:59:04Z
2019-12-03T08:01:38Z,42.805,6.029,13.2965,4.59963,2470.017,2019-12-03T10:02:07Z
2019-12-03T08:04:42Z,42.805,6.029,13.2967,4.59968,2469.97,2019-12-03T10:05:11Z
2019-12-03T08:07:45Z,42.805,6.029,13.2974,4.59989,2470.007,2019-12-03T10:08:14Z
2019-12-03T08:10:48Z,42.805,6.029,13.2976,4.59983,2470.007,2019-12-03T10:11:17Z
2019-12-03T08:13:51Z,42.805,6.029,13.2978,4.59991,2470.03,2019-12-03T10:14:20Z
2019-12-03T08:16:54Z,42.805,6.029,13.2974,4.60009,2470.007,2019-12-03T10:17:23Z
2019-12-03T08:19:57Z,42.805,6.029,13.2974,4.60006,2470.007,2019-12-03T10:20:27Z
2019-12-03T08:23:01Z,42.805,6.029,13.2988,4.60011,2470.007,2019-12-03T10:23:30Z
2019-12-03T08:26:04Z,42.805,6.029,13.2976,4.59996,2469.993,2019-12-03T10:26:33Z
2019-12-03T08:29:07Z,42.805,6.029,13.2979,4.59999,2470.053,2019-12-03T10:29:36Z
2019-12-03T08:32:10Z,42.805,6.029,13.2971,4.59988,2469.97,2019-12-03T10:32:40Z
2019-12-03T08:35:14Z,42.805,6.029,13.2983,4.60011,2470.03,2019-12-03T10:35:43Z
2019-12-03T08:38:17Z,42.805,6.029,13.2976,4.59998,2470.04,2019-12-03T10:38:46Z
2019-12-03T08:41:20Z,42.805,6.029,13.2981,4.60010,2470.017,2019-12-03T10:41:49Z
2019-12-03T08:44:23Z,42.805,6.029,13.2996,4.60014,2469.993,2019-12-03T10:44:52Z
2019-12-03T08:47:26Z,42.805,6.029,13.2975,4.59985,2470.017,2019-12-03T10:47:55Z
2019-12-03T08:50:29Z,42.805,6.029,13.2986,4.60017,2470.04,2019-12-03T10:50:59Z
2019-12-03T08:53:33Z,42.805,6.029,13.2990,4.59981,2470.03,2019-12-03T10:54:02Z
2019-12-03T08:56:36Z,42.805,6.029,13.2990,4.60011,2470.04,2019-12-03T10:57:05Z
2019-12-03T08:59:39Z,42.805,6.029,13.2978,4.60019,2470.04,2019-12-03T11:00:08Z
2019-12-03T09:02:42Z,42.805,6.029,13.2983,4.60012,2470.03,2019-12-03T11:03:12Z
2019-12-03T09:05:46Z,42.805,6.029,13.2988,4.59984,2470.017,2019-12-03T11:06:15Z
2019-12-03T09:08:49Z,42.805,6.029,13.2988,4.60001,2470.04,2019-12-03T11:09:18Z
2019-12-03T09:11:52Z,42.805,6.029,13.2976,4.59986,2470.04,2019-12-03T11:12:21Z
2019-12-03T09:14:55Z,42.805,6.029,13.2979,4.59989,2470.04,2019-12-03T11:15:25Z
2019-12-03T09:17:59Z,42.805,6.029,13.2968,4.59993,2470.04,2019-12-03T11:18:28Z
2019-12-03T09:21:02Z,42.805,6.029,13.2986,4.59999,2470.04,2019-12-03T11:21:31Z
2019-12-03T09:24:05Z,42.805,6.029,13.2998,4.60003,2470.04,2019-12-03T11:24:34Z
2019-12-03T09:27:08Z,42.805,6.029,13.2991,4.59999,2470.053,2019-12-03T11:27:37Z
2019-12-03T09:30:12Z,42.805,6.029,13.2982,4.59992,2470.077,2019-12-03T11:30:41Z
2019-12-03T09:33:15Z,42.805,6.029,13.2983,4.59973,2470.053,2019-12-03T11:33:44Z
2019-12-03T09:36:18Z,42.805,6.029,13.2977,4.59968,2470.017,2019-12-03T11:36:47Z
2019-12-03T09:39:21Z,42.805,6.029,13.2964,4.59974,2470.04,2019-12-03T11:39:50Z
2019-12-03T09:42:24Z,42.805,6.029,13.2972,4.59998,2470.063,2019-12-03T11:42:53Z
2019-12-03T09:45:27Z,42.805,6.029,13.2967,4.59970,2470.04,2019-12-03T11:45:57Z
2019-12-03T09:48:31Z,42.805,6.029,13.2968,4.59988,2470.091,2019-12-03T11:49:00Z
2019-12-03T09:51:34Z,42.805,6.029,13.2978,4.59997,2470.04,2019-12-03T11:52:03Z
2019-12-03T09:54:37Z,42.805,6.029,13.2982,4.59976,2470.063,2019-12-03T11:55:06Z
2019-12-03T09:57:40Z,42.805,6.029,13.2979,4.59973,2470.1,2019-12-03T11:58:09Z
2019-12-03T10:00:43Z,42.805,6.029,13.2968,4.59978,2470.063,2019-12-03T12:01:13Z
2019-12-03T10:03:47Z,42.805,6.029,13.2973,4.59975,2470.063,2019-12-03T12:04:16Z
2019-12-03T10:06:50Z,42.805,6.029,13.2974,4.59988,2470.077,2019-12-03T12:07:19Z
2019-12-03T10:09:53Z,42.805,6.029,13.2979,4.59991,2470.087,2019-12-03T12:10:22Z
2019-12-03T10:12:56Z,42.805,6.029,13.2980,4.59997,2470.067,2019-12-03T12:13:25Z
2019-12-03T10:15:59Z,42.805,6.029,13.2989,4.60004,2470.11,2019-12-03T12:16:29Z
2019-12-03T10:19:03Z,42.805,6.029,13.2980,4.60003,2470.04,2019-12-03T12:19:32Z
2019-12-03T10:22:06Z,42.805,6.029,13.2979,4.59979,2470.087,2019-12-03T12:22:35Z
2019-12-03T10:25:09Z,42.805,6.029,13.2963,4.59996,2470.1,2019-12-03T12:25:38Z
2019-12-03T10:28:12Z,42.805,6.029,13.2973,4.60002,2470.087,2019-12-03T12:28:42Z
2019-12-03T10:31:16Z,42.805,6.029,13.2979,4.59978,2470.077,2019-12-03T12:31:45Z
2019-12-03T10:34:19Z,42.805,6.029,13.2965,4.59976,2470.063,2019-12-03T12:34:48Z
2019-12-03T10:37:22Z,42.805,6.029,13.2974,4.59976,2470.077,2019-12-03T12:37:51Z
2019-12-03T10:40:25Z,42.805,6.029,13.2981,4.60002,2470.063,2019-12-03T12:40:54Z
2019-12-03T10:43:28Z,42.805,6.029,13.2990,4.60007,2470.087,2019-12-03T12:43:58Z
2019-12-03T10:46:32Z,42.805,6.029,13.2996,4.59983,2470.1,2019-12-03T12:47:01Z
2019-12-03T10:49:35Z,42.805,6.029,13.2978,4.59984,2470.1,2019-12-03T12:50:04Z
2019-12-03T10:52:38Z,42.805,6.029,13.2979,4.59994,2470.063,2019-12-03T12:53:07Z
2019-12-03T10:55:41Z,42.805,6.029,13.2986,4.60011,2470.087,2019-12-03T12:56:10Z
2019-12-03T10:58:44Z,42.805,6.029,13.2974,4.60011,2470.11,2019-12-03T12:59:14Z
2019-12-03T11:01:48Z,42.805,6.029,13.2972,4.59995,2470.133,2019-12-03T13:02:17Z
2019-12-03T11:04:51Z,42.805,6.029,13.2980,4.59978,2470.063,2019-12-03T13:05:20Z
2019-12-03T11:07:54Z,42.805,6.029,13.2975,4.59998,2470.087,2019-12-03T13:08:23Z
2019-12-03T11:10:57Z,42.805,6.029,13.2984,4.59982,2470.11,2019-12-03T13:11:26Z
2019-12-03T11:14:00Z,42.805,6.029,13.2974,4.60009,2470.087,2019-12-03T13:14:30Z
2019-12-03T11:17:04Z,42.805,6.029,13.2981,4.59982,2470.087,2019-12-03T13:17:33Z
2019-12-03T11:20:07Z,42.805,6.029,13.2974,4.59989,2470.11,2019-12-03T13:20:36Z
2019-12-03T11:23:10Z,42.805,6.029,13.2974,4.59984,2470.1,2019-12-03T13:23:39Z
2019-12-03T11:26:13Z,42.805,6.029,13.2970,4.59996,2470.087,2019-12-03T13:26:43Z
2019-12-03T11:29:17Z,42.805,6.029,13.2976,4.59983,2470.087,2019-12-03T13:29:46Z
2019-12-03T11:32:20Z,42.805,6.029,13.2976,4.59991,2470.11,2019-12-03T13:32:49Z
2019-12-03T11:35:23Z,42.805,6.029,13.2983,4.59978,2470.11,2019-12-03T13:35:52Z
2019-12-03T11:38:26Z,42.805,6.029,13.2982,4.59983,2470.087,2019-12-03T13:38:55Z
2019-12-03T11:41:30Z,42.805,6.029,13.2979,4.59989,2470.063,2019-12-03T13:41:59Z
2019-12-03T11:44:33Z,42.805,6.029,13.2972,4.59966,2470.077,2019-12-03T13:45:02Z
2019-12-03T11:47:36Z,42.805,6.029,13.2967,4.59996,2470.11,2019-12-03T13:48:05Z
2019-12-03T11:50:39Z,42.805,6.029,13.2992,4.60011,2470.11,2019-12-03T13:51:08Z
2019-12-03T11:53:42Z,42.805,6.029,13.2974,4.59990,2470.087,2019-12-03T13:54:12Z
2019-12-03T11:56:46Z,42.805,6.029,13.2967,4.59976,2470.063,2019-12-03T13:57:15Z
2019-12-03T11:59:49Z,42.805,6.029,13.2983,4.59990,2470.124,2019-12-03T14:00:18Z
2019-12-03T12:02:52Z,42.805,6.029,13.2979,4.59991,2470.124,2019-12-03T14:03:21Z
2019-12-03T12:05:55Z,42.805,6.029,13.2973,4.60007,2470.1,2019-12-03T14:06:24Z
2019-12-03T12:08:58Z,42.805,6.029,13.2976,4.59992,2470.133,2019-12-03T14:09:28Z
2019-12-03T12:12:02Z,42.805,6.029,13.2982,4.60012,2470.087,2019-12-03T14:12:31Z
2019-12-03T12:15:05Z,42.805,6.029,13.2992,4.60011,2470.11,2019-12-03T14:15:34Z
2019-12-03T12:18:08Z,42.805,6.029,13.3000,4.59998,2470.063,2019-12-03T14:18:37Z
2019-12-03T12:21:11Z,42.805,6.029,13.2983,4.60006,2470.087,2019-12-03T14:21:40Z
2019-12-03T12:24:14Z,42.805,6.029,13.2976,4.59996,2470.124,2019-12-03T14:24:44Z
2019-12-03T12:27:18Z,42.805,6.029,13.2983,4.60004,2470.11,2019-12-03T14:27:47Z
2019-12-03T12:30:21Z,42.805,6.029,13.2976,4.59988,2470.124,2019-12-03T14:30:50Z
2019-12-03T12:33:24Z,42.805,6.029,13.2981,4.59997,2470.1,2019-12-03T14:33:53Z
2019-12-03T12:36:27Z,42.805,6.029,13.2978,4.59996,2470.124,2019-12-03T14:36:56Z
2019-12-03T12:39:30Z,42.805,6.029,13.2993,4.60006,2470.1,2019-12-03T14:40:00Z
2019-12-03T12:42:34Z,42.805,6.029,13.2986,4.59990,2470.11,2019-12-03T14:43:03Z
2019-12-03T12:45:37Z,42.805,6.029,13.2973,4.59982,2470.063,2019-12-03T14:46:06Z
2019-12-03T12:48:40Z,42.805,6.029,13.2970,4.59982,2470.1,2019-12-03T14:49:09Z
2019-12-03T12:51:43Z,42.805,6.029,13.2971,4.59980,2470.124,2019-12-03T14:52:12Z
2019-12-03T12:54:46Z,42.805,6.029,13.2986,4.60009,2470.124,2019-12-03T14:55:16Z
2019-12-03T12:57:50Z,42.805,6.029,13.2983,4.60007,2470.053,2019-12-03T14:58:19Z
2019-12-03T13:00:53Z,42.805,6.029,13.2982,4.60012,2470.11,2019-12-03T15:01:22Z
2019-12-03T13:03:56Z,42.805,6.029,13.2983,4.59982,2470.1,2019-12-03T15:04:25Z
2019-12-03T13:06:59Z,42.805,6.029,13.2975,4.60014,2470.087,2019-12-03T15:07:28Z
2019-12-03T13:10:02Z,42.805,6.029,13.2978,4.59988,2470.087,2019-12-03T15:10:32Z
2019-12-03T13:13:06Z,42.805,6.029,13.2967,4.59971,2470.087,2019-12-03T15:13:35Z
2019-12-03T13:16:09Z,42.805,6.029,13.2967,4.59992,2470.063,2019-12-03T15:16:38Z
2019-12-03T13:19:12Z,42.805,6.029,13.2977,4.59988,2470.11,2019-12-03T15:19:41Z
2019-12-03T13:22:15Z,42.805,6.029,13.2982,4.59996,2470.087,2019-12-03T15:22:44Z
2019-12-03T13:25:18Z,42.805,6.029,13.2976,4.60010,2470.077,2019-12-03T15:25:48Z
2019-12-03T13:28:22Z,42.805,6.029,13.2996,4.60009,2470.087,2019-12-03T15:28:51Z
2019-12-03T13:31:25Z,42.805,6.029,13.2984,4.60025,2470.087,2019-12-03T15:31:54Z
2019-12-03T13:34:28Z,42.805,6.029,13.2978,4.60029,2470.077,2019-12-03T15:34:57Z
2019-12-03T13:37:31Z,42.805,6.029,13.2987,4.60023,2470.087,2019-12-03T15:38:00Z
2019-12-03T13:40:34Z,42.805,6.029,13.2975,4.60004,2470.1,2019-12-03T15:41:04Z
2019-12-03T13:43:38Z,42.805,6.029,13.2974,4.59988,2470.1,2019-12-03T15:44:07Z
2019-12-03T13:46:41Z,42.805,6.029,13.2984,4.59993,2470.053,2019-12-03T15:47:10Z
2019-12-03T13:49:44Z,42.805,6.029,13.2971,4.59999,2470.1,2019-12-03T15:50:13Z
2019-12-03T13:52:47Z,42.805,6.029,13.2971,4.60009,2470.04,2019-12-03T15:53:16Z
2019-12-03T13:55:50Z,42.805,6.029,13.2989,4.59991,2470.063,2019-12-03T15:56:20Z
2019-12-03T13:58:54Z,42.805,6.029,13.2973,4.59999,2470.063,2019-12-03T15:59:23Z
2019-12-03T14:01:57Z,42.805,6.029,13.2991,4.60005,2470.063,2019-12-03T16:02:26Z
2019-12-03T14:05:00Z,42.805,6.029,13.2989,4.60008,2470.063,2019-12-03T16:05:29Z
2019-12-03T14:08:03Z,42.805,6.029,13.2976,4.60010,2470.1,2019-12-03T16:08:32Z
2019-12-03T14:11:06Z,42.805,6.029,13.2976,4.60010,2470.063,2019-12-03T16:11:36Z
2019-12-03T14:14:10Z,42.805,6.029,13.2989,4.59985,2470.1,2019-12-03T16:14:39Z
2019-12-03T14:17:13Z,42.805,6.029,13.2972,4.60009,2470.063,2019-12-03T16:17:42Z
2019-12-03T14:20:16Z,42.805,6.029,13.2981,4.60013,2470.1,2019-12-03T16:20:45Z
2019-12-03T14:23:19Z,42.805,6.029,13.2991,4.59999,2470.063,2019-12-03T16:23:48Z
2019-12-03T14:26:22Z,42.805,6.029,13.2989,4.59973,2470.053,2019-12-03T16:26:52Z
2019-12-03T14:29:26Z,42.805,6.029,13.2979,4.59984,2470.1,2019-12-03T16:29:55Z
2019-12-03T14:32:29Z,42.805,6.029,13.2973,4.60011,2470.077,2019-12-03T16:32:58Z
2019-12-03T14:35:32Z,42.805,6.029,13.2979,4.60006,2470.04,2019-12-03T16:36:01Z
2019-12-03T14:38:35Z,42.805,6.029,13.2983,4.59996,2470.04,2019-12-03T16:39:04Z
2019-12-03T14:41:38Z,42.805,6.029,13.2982,4.60015,2470.077,2019-12-03T16:42:08Z
2019-12-03T14:44:42Z,42.805,6.029,13.2975,4.60014,2470.063,2019-12-03T16:45:11Z
2019-12-03T14:47:45Z,42.805,6.029,13.2993,4.60025,2470.04,2019-12-03T16:48:14Z
2019-12-03T14:50:48Z,42.805,6.029,13.2980,4.60018,2470.063,2019-12-03T16:51:17Z
2019-12-03T14:53:51Z,42.805,6.029,13.2982,4.60015,2470.04,2019-12-03T16:54:20Z
2019-12-03T14:56:54Z,42.805,6.029,13.2974,4.60036,2470.077,2019-12-03T16:57:23Z
2019-12-03T14:59:57Z,42.805,6.029,13.2996,4.60009,2470.063,2019-12-03T17:00:27Z
2019-12-03T15:03:01Z,42.805,6.029,13.2989,4.60000,2470.04,2019-12-03T17:03:30Z